1487210401.0,5261,12.63,74758.5,-5.73,-34.13,-34.53,0,*65
1487210402.22,5262,12.63,74758.3,-5.75,-34.01,-34.41,0,*60
1487210403.45,5263,12.63,74758.8,-5.73,-34.25,-34.59,0,*68
1487210404.68,5264,12.63,74760.5,-5.75,-34.35,-34.59,0,*68
1487210405.91,5265,12.63,74762.3,-5.75,-34.53,-34.77,0,*65
1487210407.11,5266,12.63,74762.0,-5.75,-34.41,-34.77,0,*65
1487210408.31,5267,12.63,74760.8,-5.75,-34.13,-34.41,0,*66
1487210409.56,5268,12.63,74762.0,-5.75,-34.01,-34.35,0,*69
1487210410.82,5269,12.63,74758.8,-5.75,-34.19,-34.53,0,*61
1487210412.02,5270,12.63,74760.3,-5.75,-34.13,-34.41,0,*60
1487210413.24,5271,12.63,74760.0,-5.75,-34.13,-34.35,0,*62
1487210414.46,5272,12.63,74762.3,-5.75,-33.95,-34.19,0,*66
1487210415.66,5273,12.63,74762.0,-5.75,-33.83,-34.25,0,*6F
1487210416.88,5274,12.63,74760.3,-5.73,-34.13,-34.41,0,*62
1487210418.11,5275,12.63,74760.3,-5.75,-34.35,-34.71,0,*62
1487210419.37,5276,12.63,74762.0,-5.73,-34.35,-34.71,0,*67
1487210420.62,5277,12.63,74762.5,-5.73,-34.35,-34.71,0,*66
1487210421.85,5278,12.63,74758.0,-5.75,-34.35,-34.71,0,*6F
1487210423.05,5279,12.63,74760.5,-5.75,-34.25,-34.59,0,*65
1487210424.32,5280,12.63,74760.0,-5.73,-34.01,-34.35,0,*69
1487210425.55,5281,12.63,74762.5,-5.75,-34.19,-34.59,0,*6D
1487210426.75,5282,12.63,74762.5,-5.75,-34.41,-34.71,0,*69
1487210427.98,5283,12.63,74762.0,-5.75,-34.13,-34.35,0,*6F
1487210429.23,5284,12.63,74762.5,-5.75,-34.01,-34.19,0,*65
1487210430.48,5285,12.63,74762.5,-5.75,-34.01,-34.19,0,*64
1487210431.7,5286,12.63,74760.5,-5.75,-34.01,-34.41,0,*6A
1487210432.93,5287,12.63,74760.0,-5.75,-34.35,-34.77,0,*69
1487210434.14,5288,12.63,74760.3,-5.75,-34.25,-34.71,0,*61
1487210435.37,5289,12.63,74756.5,-5.75,-34.35,-34.71,0,*61
1487210436.57,5290,12.63,74760.0,-5.75,-34.25,-34.71,0,*68
1487210437.79,5291,12.63,74758.3,-5.77,-34.41,-34.77,0,*6F
1487210439.0,5292,12.63,74760.8,-5.75,-34.25,-34.71,0,*6A
1487210440.19,5293,12.63,74760.0,-5.75,-34.13,-34.25,0,*6F
1487210441.42,5294,12.63,74762.0,-5.75,-34.01,-34.25,0,*6B
1487210442.65,5295,12.63,74758.5,-5.77,-34.07,-34.47,0,*6A
1487210443.88,5296,12.63,74760.0,-5.75,-34.01,-34.25,0,*69
1487210445.07,5297,12.63,74760.3,-5.75,-33.95,-34.25,0,*62
1487210446.33,5298,12.63,74760.5,-5.75,-33.77,-34.01,0,*67
1487210447.6,5299,12.63,74762.3,-5.73,-33.77,-34.01,0,*60
1487210448.85,5300,12.63,74762.8,-5.73,-34.01,-34.41,0,*63
1487210450.08,5301,12.63,74762.5,-5.75,-34.13,-34.53,0,*64
1487210451.31,5302,12.63,74762.5,-5.75,-34.35,-34.71,0,*63
1487210452.52,5303,12.63,74762.8,-5.75,-34.41,-34.77,0,*67
1487210453.72,5304,12.63,74760.0,-5.75,-34.13,-34.41,0,*62
1487210454.96,5305,12.56,74756.5,-5.77,-33.89,-34.25,0,*67
1487210456.18,5306,12.63,74758.3,-5.75,-33.95,-34.19,0,*64
1487210457.4,5307,12.56,74756.5,-5.75,-33.95,-34.19,0,*65
1487210458.62,5308,12.63,74762.0,-5.75,-34.01,-34.25,0,*6F
1487210459.85,5309,12.63,74760.0,-5.75,-34.35,-34.59,0,*62
1487210461.07,5310,12.63,74756.0,-5.75,-33.95,-34.19,0,*63
1487210462.29,5311,12.63,74758.5,-5.75,-33.61,-33.83,0,*6D
1487210463.54,5312,12.63,74762.0,-5.73,-33.61,-33.95,0,*6F
1487210464.76,5313,12.63,74760.0,-5.73,-34.25,-34.59,0,*6E
1487210466.02,5314,12.63,74760.5,-5.73,-34.53,-34.77,0,*64
1487210467.25,5315,12.63,74760.5,-5.73,-34.41,-34.77,0,*66
1487210468.47,5316,12.63,74760.0,-5.75,-34.35,-34.71,0,*66
1487210469.7,5317,12.63,74760.5,-5.75,-34.19,-34.59,0,*63
1487210470.93,5318,12.63,74760.3,-5.75,-34.13,-34.53,0,*6C
1487210472.16,5319,12.63,74762.3,-5.71,-33.89,-33.95,0,*60
1487210473.38,5320,12.56,74756.5,-5.73,-33.67,-33.95,0,*68
1487210474.63,5321,12.56,74756.5,-5.75,-34.01,-34.35,0,*65
1487210475.86,5322,12.56,74756.5,-5.73,-34.25,-34.59,0,*6C
1487210477.08,5323,12.63,74760.3,-5.73,-34.25,-34.71,0,*67
1487210478.31,5324,12.63,74760.5,-5.75,-34.35,-34.71,0,*67
1487210479.51,5325,12.63,74762.8,-5.75,-34.25,-34.71,0,*67
1487210480.74,5326,12.63,74758.0,-5.73,-34.13,-34.41,0,*64
1487210481.99,5327,12.56,74758.0,-5.75,-34.01,-34.35,0,*63
1487210483.24,5328,12.63,74760.0,-5.73,-34.35,-34.71,0,*6D
1487210484.47,5329,12.56,74756.8,-5.75,-34.35,-34.71,0,*6A
1487210485.7,5330,12.56,74758.3,-5.75,-34.13,-34.35,0,*66
1487210486.9,5331,12.63,74760.5,-5.75,-34.41,-34.71,0,*60
1487210488.15,5332,12.63,74760.5,-5.73,-34.35,-34.71,0,*66
1487210489.37,5333,12.63,74760.0,-5.75,-34.01,-34.41,0,*65
1487210490.58,5334,12.63,74760.8,-5.75,-34.41,-34.71,0,*65
1487210491.78,5335,12.63,74758.3,-5.75,-34.41,-34.77,0,*62
1487210493.04,5336,12.63,74756.0,-5.73,-34.53,-34.77,0,*64
1487210494.24,5337,12.63,74756.3,-5.75,-34.41,-34.71,0,*66
1487210495.44,5338,12.63,74756.3,-5.75,-34.41,-34.71,0,*69
1487210496.67,5339,12.63,74758.0,-5.75,-34.19,-34.59,0,*6F
1487210497.87,5340,12.63,74762.8,-5.75,-34.13,-34.41,0,*62
1487210499.1,5341,12.63,74758.0,-5.75,-34.19,-34.59,0,*60
1487210500.33,5342,12.56,74758.0,-5.75,-34.35,-34.71,0,*67
1487210501.56,5343,12.63,74758.0,-5.75,-34.13,-34.53,0,*62
1487210502.82,5344,12.63,74762.0,-5.75,-34.19,-34.53,0,*6F
1487210504.07,5345,12.63,74760.3,-5.77,-34.47,-34.83,0,*6A
1487210505.34,5346,12.63,74756.0,-5.77,-34.19,-34.31,0,*6B
1487210506.59,5347,12.63,74760.3,-5.75,-33.27,-33.61,0,*60
1487210507.8,5348,12.63,74762.0,-5.75,-33.83,-34.13,0,*63
1487210509.0,5349,12.63,74762.5,-5.75,-34.25,-34.59,0,*67
1487210510.22,5350,12.56,74756.8,-5.75,-34.35,-34.59,0,*6E
1487210511.43,5351,12.63,74762.5,-5.75,-34.41,-34.77,0,*60
1487210512.68,5352,12.63,74760.5,-5.77,-34.31,-34.77,0,*66
1487210513.92,5353,12.63,74758.3,-5.75,-33.83,-34.01,0,*6A
1487210515.2,5354,12.63,74756.0,-5.73,-34.19,-34.53,0,*68
1487210516.42,5355,12.63,74762.3,-5.75,-34.25,-34.53,0,*60
1487210517.71,5356,12.63,74758.5,-5.77,-34.31,-34.65,0,*61
1487210518.94,5357,12.63,74758.0,-5.75,-34.25,-34.53,0,*62
1487210520.14,5358,12.63,74760.5,-5.75,-34.25,-34.59,0,*67
1487210521.37,5359,12.63,74760.0,-5.75,-34.25,-34.53,0,*6C
1487210522.59,5360,12.63,74760.3,-5.75,-34.35,-34.59,0,*6D
1487210523.79,5361,12.63,74760.0,-5.75,-34.13,-34.41,0,*61
1487210524.99,5362,12.56,74756.5,-5.75,-34.13,-34.41,0,*62
1487210526.22,5363,12.63,74758.8,-5.75,-34.25,-34.53,0,*65
1487210527.45,5364,12.63,74762.5,-5.75,-34.53,-34.71,0,*63
1487210528.68,5365,12.63,74758.0,-5.75,-34.19,-34.59,0,*66
1487210529.88,5366,12.63,74760.0,-5.75,-33.95,-34.13,0,*68
1487210531.11,5367,12.63,74762.5,-5.75,-34.13,-34.53,0,*64
1487210532.34,5368,12.56,74758.5,-5.75,-34.25,-34.53,0,*6E
1487210533.54,5369,12.63,74762.0,-5.75,-34.25,-34.59,0,*65
1487210534.77,5370,12.63,74760.8,-5.75,-34.13,-34.35,0,*62
1487210535.99,5371,12.63,74756.8,-5.75,-34.13,-34.35,0,*63
1487210537.22,5372,12.63,74760.3,-5.75,-34.35,-34.59,0,*6E
1487210538.42,5373,12.63,74762.8,-5.75,-34.25,-34.59,0,*6E
1487210539.71,5374,12.63,74762.3,-5.77,-34.31,-34.65,0,*61
1487210540.95,5375,12.63,74762.3,-5.77,-34.19,-34.41,0,*6C
1487210542.2,5376,12.63,74762.0,-5.77,-34.19,-34.59,0,*66
1487210543.43,5377,12.63,74762.3,-5.77,-34.07,-34.25,0,*63
1487210544.7,5378,12.63,74758.0,-5.77,-33.89,-34.19,0,*62
1487210545.92,5379,12.56,74758.8,-5.75,-34.01,-34.25,0,*69
1487210547.15,5380,12.63,74758.5,-5.75,-34.35,-34.59,0,*63
1487210548.35,5381,12.63,74758.8,-5.75,-34.41,-34.77,0,*6D
1487210549.56,5382,12.63,74756.8,-5.75,-34.41,-34.77,0,*6E
1487210550.78,5383,12.63,74756.0,-5.75,-34.13,-34.35,0,*6E
1487210552.0,5384,12.63,74758.3,-5.75,-33.77,-33.95,0,*61
1487210553.21,5385,12.63,74760.5,-5.75,-34.25,-34.71,0,*6D
1487210554.46,5386,12.56,74758.3,-5.75,-34.19,-34.53,0,*61
1487210555.69,5387,12.63,74760.3,-5.75,-34.35,-34.59,0,*64
1487210556.89,5388,12.63,74760.3,-5.75,-34.41,-34.77,0,*64
1487210558.15,5389,12.56,74758.0,-5.77,-34.41,-34.65,0,*64
1487210559.41,5390,12.63,74762.0,-5.77,-34.31,-34.77,0,*68
1487210560.69,5391,12.63,74762.0,-5.77,-34.31,-34.65,0,*6A
1487210561.92,5392,12.63,74760.8,-5.77,-34.41,-34.47,0,*6E
1487210563.17,5393,12.63,74758.8,-5.77,-34.31,-34.59,0,*67
1487210564.45,5394,12.63,74760.3,-5.77,-34.31,-34.65,0,*6F
1487210565.68,5395,12.63,74760.0,-5.77,-34.25,-34.59,0,*64
1487210566.92,5396,12.56,74754.5,-5.77,-34.19,-34.41,0,*61
1487210568.18,5397,12.56,74758.0,-5.77,-34.07,-34.31,0,*68
1487210569.43,5398,12.63,74760.0,-5.77,-34.41,-34.65,0,*64
1487210570.66,5399,12.63,74756.5,-5.77,-34.25,-34.47,0,*67
1487210571.89,5400,12.63,74758.8,-5.79,-34.19,-34.47,0,*61
1487210573.14,5401,12.63,74758.5,-5.77,-34.31,-34.59,0,*6B
1487210574.37,5402,12.56,74758.8,-5.77,-34.25,-34.59,0,*6D
1487210575.62,5403,12.63,74760.8,-5.77,-34.41,-34.65,0,*61
1487210576.83,5404,12.63,74760.8,-5.79,-34.25,-34.59,0,*65
1487210578.05,5405,12.63,74760.3,-5.77,-34.25,-34.59,0,*6A
1487210579.27,5406,12.63,74760.8,-5.77,-34.25,-34.41,0,*60
1487210580.49,5407,12.63,74756.8,-5.75,-33.95,-34.19,0,*62
1487210581.72,5408,12.63,74758.0,-5.77,-34.07,-34.47,0,*68
1487210582.95,5409,12.56,74758.3,-5.77,-34.41,-34.77,0,*68
1487210584.19,5410,12.63,74760.0,-5.77,-34.47,-34.77,0,*66
1487210585.41,5411,12.56,74756.0,-5.77,-34.25,-34.59,0,*6F
1487210586.64,5412,12.63,74760.8,-5.79,-34.19,-34.47,0,*62
1487210587.85,5413,12.63,74760.3,-5.79,-34.25,-34.47,0,*6C
1487210589.1,5414,12.63,74762.3,-5.77,-34.19,-34.47,0,*6A
1487210590.39,5415,12.63,74760.8,-5.77,-34.31,-34.65,0,*61
1487210591.64,5416,12.63,74756.0,-5.77,-34.41,-34.65,0,*65
1487210592.86,5417,12.63,74758.8,-5.79,-34.47,-34.77,0,*6F
1487210594.1,5418,12.63,74758.8,-5.77,-34.19,-34.41,0,*60
1487210595.37,5419,12.56,74758.5,-5.77,-34.19,-34.31,0,*66
1487210596.63,5420,12.63,74758.5,-5.77,-34.19,-34.47,0,*6D
1487210597.89,5421,12.56,74756.0,-5.77,-34.19,-34.47,0,*6C
1487210599.09,5422,12.63,74762.3,-5.75,-34.25,-34.59,0,*6D
1487210600.32,5423,12.63,74758.0,-5.79,-34.41,-34.65,0,*6D
1487210601.57,5424,12.63,74762.0,-5.77,-34.59,-34.83,0,*65
1487210602.86,5425,12.63,74760.5,-5.77,-34.31,-34.65,0,*62
1487210604.14,5426,12.56,74756.8,-5.77,-34.31,-34.65,0,*61
1487210605.37,5427,12.56,74758.5,-5.79,-34.41,-34.65,0,*69
1487210606.6,5428,12.56,74756.8,-5.79,-34.19,-34.41,0,*6D
1487210607.8,5429,12.63,74758.8,-5.79,-34.07,-34.41,0,*63
1487210609.04,5430,12.56,74756.8,-5.77,-34.19,-34.41,0,*6A
1487210610.3,5431,12.63,74762.5,-5.77,-34.41,-34.65,0,*60
1487210611.55,5432,12.56,74758.0,-5.77,-34.19,-34.47,0,*6E
1487210612.81,5433,12.63,74756.5,-5.77,-34.19,-34.59,0,*60
1487210614.04,5434,12.63,74756.3,-5.79,-34.41,-34.65,0,*6B
1487210615.27,5435,12.56,74756.5,-5.77,-34.41,-34.77,0,*67
1487210616.52,5436,12.56,74758.8,-5.77,-34.41,-34.65,0,*67
1487210617.75,5437,12.56,74756.5,-5.79,-34.31,-34.59,0,*60
1487210618.96,5438,12.63,74758.5,-5.79,-34.41,-34.77,0,*64
1487210620.18,5439,12.56,74756.5,-5.79,-34.19,-34.41,0,*6D
1487210621.4,5440,12.56,74758.5,-5.79,-34.01,-34.25,0,*68
1487210622.65,5441,12.63,74760.0,-5.77,-34.07,-34.31,0,*64
1487210623.86,5442,12.63,74756.3,-5.79,-34.41,-34.77,0,*69
1487210625.08,5443,12.63,74760.5,-5.77,-34.25,-34.59,0,*68
1487210626.29,5444,12.56,74758.3,-5.79,-34.07,-34.47,0,*6E
1487210627.51,5445,12.56,74756.0,-5.79,-34.47,-34.77,0,*68
1487210628.77,5446,12.56,74758.8,-5.79,-34.31,-34.65,0,*69
1487210629.99,5447,12.56,74754.5,-5.79,-34.31,-34.59,0,*67
1487210631.21,5448,12.56,74756.5,-5.79,-34.47,-34.77,0,*65
1487210632.42,5449,12.63,74758.3,-5.79,-34.47,-34.77,0,*64
1487210633.63,5450,12.63,74756.3,-5.79,-34.59,-34.77,0,*63
1487210634.88,5451,12.56,74758.8,-5.83,-34.53,-34.83,0,*66
1487210636.1,5452,12.63,74760.5,-5.83,-34.71,-35.01,0,*6E
1487210637.31,5453,12.63,74758.8,-5.83,-34.71,-35.01,0,*6F
1487210638.56,5454,12.63,74760.3,-5.79,-34.65,-34.83,0,*63
1487210639.81,5455,12.56,74758.5,-5.83,-34.35,-34.83,0,*62
1487210641.07,5456,12.63,74756.8,-5.83,-34.31,-34.65,0,*6D
1487210642.33,5457,12.56,74758.3,-5.83,-34.31,-34.65,0,*6C
1487210643.55,5458,12.63,74756.8,-5.83,-34.31,-34.71,0,*66
1487210644.79,5459,12.63,74758.5,-5.79,-34.41,-34.65,0,*60
1487210646.04,5460,12.56,74756.3,-5.83,-34.53,-34.83,0,*64
1487210647.27,5461,12.56,74752.8,-5.85,-34.47,-34.71,0,*6B
1487210648.49,5462,12.56,74758.0,-5.83,-34.25,-34.53,0,*6A
1487210649.72,5463,12.56,74758.0,-5.83,-34.25,-34.53,0,*6B
1487210650.92,5464,12.63,74760.0,-5.83,-34.25,-34.47,0,*69
1487210652.15,5465,12.63,74758.0,-5.85,-34.25,-34.47,0,*6E
1487210653.43,5466,12.56,74756.0,-5.85,-34.31,-34.65,0,*68
1487210654.65,5467,12.56,74756.0,-5.83,-34.25,-34.31,0,*6B
1487210655.86,5468,12.56,74758.0,-5.83,-33.95,-34.31,0,*68
1487210657.09,5469,12.56,74756.8,-5.83,-34.07,-34.35,0,*61
1487210658.29,5470,12.63,74758.8,-5.79,-33.83,-34.07,0,*66
1487210659.55,5471,12.56,74758.3,-5.79,-33.73,-33.89,0,*69
1487210660.79,5472,12.56,74756.8,-5.79,-33.89,-34.19,0,*61
1487210662.02,5473,12.56,74758.8,-5.79,-34.01,-34.41,0,*6A
1487210663.25,5474,12.63,74756.3,-5.79,-34.25,-34.65,0,*6D
1487210664.48,5475,12.56,74756.0,-5.79,-34.19,-34.59,0,*6C
1487210665.73,5476,12.56,74758.3,-5.77,-34.41,-34.65,0,*63
1487210666.95,5477,12.56,74756.5,-5.79,-34.47,-34.77,0,*69
1487210668.2,5478,12.63,74758.0,-5.83,-34.53,-34.83,0,*6D
1487210669.41,5479,12.63,74758.3,-5.79,-34.47,-34.77,0,*67
1487210670.62,5480,12.56,74756.5,-5.83,-34.47,-34.71,0,*62
1487210671.85,5481,12.56,74756.0,-5.83,-34.53,-34.89,0,*61
1487210673.05,5482,12.63,74758.5,-5.83,-34.25,-34.47,0,*61
1487210674.24,5483,12.56,74758.3,-5.83,-34.07,-34.25,0,*64
1487210675.47,5484,12.56,74758.5,-5.83,-34.35,-34.71,0,*63
1487210676.7,5485,12.56,74758.0,-5.83,-34.65,-34.89,0,*60
1487210677.95,5486,12.63,74756.5,-5.83,-34.53,-34.83,0,*6C
1487210679.16,5487,12.56,74756.5,-5.83,-34.47,-34.71,0,*65
1487210680.44,5488,12.63,74758.0,-5.85,-34.31,-34.65,0,*68
1487210681.67,5489,12.56,74756.3,-5.83,-34.31,-34.71,0,*6A
1487210682.91,5490,12.56,74756.5,-5.85,-34.25,-34.31,0,*65
1487210684.13,5491,12.56,74756.8,-5.85,-34.07,-34.25,0,*61
1487210685.36,5492,12.56,74756.0,-5.85,-34.13,-34.47,0,*63
1487210686.57,5493,12.56,74756.8,-5.83,-34.13,-34.47,0,*64
1487210687.82,5494,12.56,74758.0,-5.83,-34.31,-34.53,0,*66
1487210689.03,5495,12.56,74756.5,-5.83,-34.47,-34.71,0,*66
1487210690.28,5496,12.56,74758.0,-5.83,-34.31,-34.65,0,*61
1487210691.54,5497,12.56,74754.0,-5.83,-34.31,-34.65,0,*60
1487210692.82,5498,12.56,74758.0,-5.85,-34.31,-34.65,0,*69
1487210694.06,5499,12.63,74758.0,-5.85,-34.25,-34.35,0,*68
1487210695.26,5500,12.63,74758.0,-5.83,-34.07,-34.25,0,*6E
1487210696.49,5501,12.56,74754.8,-5.83,-34.13,-34.65,0,*6E
1487210697.75,5502,12.56,74758.0,-5.85,-34.47,-34.65,0,*6A
1487210699.01,5503,12.56,74758.8,-5.83,-34.31,-34.53,0,*69
1487210700.27,5504,12.63,74756.3,-5.83,-34.31,-34.65,0,*6B
1487210701.52,5505,12.56,74756.8,-5.83,-34.35,-34.65,0,*6E
1487210702.8,5506,12.56,74758.5,-5.85,-34.31,-34.65,0,*6F
1487210704.04,5507,12.56,74756.0,-5.83,-34.47,-34.65,0,*69
1487210705.23,5508,12.63,74758.0,-5.83,-33.95,-34.25,0,*6A
1487210706.45,5509,12.56,74756.8,-5.83,-34.13,-34.35,0,*63
1487210707.7,5510,12.63,74758.3,-5.85,-34.07,-34.35,0,*68
1487210708.95,5511,12.56,74752.8,-5.85,-34.25,-34.65,0,*6C
1487210710.2,5512,12.63,74756.3,-5.85,-34.53,-34.89,0,*6C
1487210711.44,5513,12.56,74754.5,-5.85,-34.47,-34.71,0,*6F
1487210712.69,5514,12.56,74756.0,-5.85,-34.53,-34.89,0,*6A
1487210713.96,5515,12.56,74754.3,-5.85,-34.65,-34.83,0,*64
1487210715.21,5516,12.56,74754.8,-5.85,-34.31,-34.71,0,*6B
1487210716.45,5517,12.56,74756.5,-5.85,-34.47,-34.71,0,*6B
1487210717.7,5518,12.56,74756.8,-5.85,-34.47,-34.83,0,*69
1487210718.96,5519,12.56,74756.5,-5.85,-34.47,-34.65,0,*60
1487210720.19,5520,12.63,74758.5,-5.85,-34.25,-34.47,0,*6E
1487210721.42,5521,12.56,74754.8,-5.85,-34.47,-34.71,0,*6E
1487210722.65,5522,12.56,74758.0,-5.87,-34.53,-34.77,0,*6C
1487210723.86,5523,12.56,74758.8,-5.87,-34.41,-34.77,0,*6E
1487210725.14,5524,12.56,74758.8,-5.85,-34.31,-34.65,0,*6F
1487210726.37,5525,12.56,74758.3,-5.87,-34.31,-34.59,0,*63
1487210727.6,5526,12.56,74758.8,-5.87,-34.35,-34.77,0,*68
1487210728.8,5527,12.56,74756.8,-5.87,-34.41,-34.77,0,*6A
1487210730.04,5528,12.56,74758.0,-5.87,-34.53,-34.77,0,*66
1487210731.27,5529,12.56,74754.3,-5.87,-34.31,-34.71,0,*65
1487210732.52,5530,12.56,74756.5,-5.89,-34.35,-34.71,0,*67
1487210733.75,5531,12.63,74756.3,-5.87,-34.35,-34.77,0,*6E
1487210734.98,5532,12.56,74754.8,-5.89,-34.41,-34.71,0,*66
1487210736.21,5533,12.56,74758.3,-5.87,-34.53,-34.89,0,*6D
1487210737.44,5534,12.56,74754.8,-5.89,-34.59,-34.89,0,*6E
1487210738.68,5535,12.56,74754.5,-5.87,-34.59,-34.95,0,*6C
1487210739.93,5536,12.56,74754.8,-5.89,-34.53,-34.89,0,*66
1487210741.16,5537,12.56,74758.8,-5.89,-34.41,-34.89,0,*64
1487210742.41,5538,12.56,74756.5,-5.89,-34.35,-34.71,0,*6F
1487210743.67,5539,12.56,74758.0,-5.87,-34.31,-34.53,0,*64
1487210744.89,5540,12.56,74754.8,-5.87,-34.13,-34.35,0,*6A
1487210746.14,5541,12.56,74754.5,-5.89,-34.13,-34.31,0,*61
1487210747.41,5542,12.56,74756.0,-5.89,-34.19,-34.35,0,*6C
1487210748.64,5543,12.56,74758.5,-5.87,-34.13,-34.35,0,*69
1487210749.84,5544,12.56,74754.8,-5.87,-33.95,-34.13,0,*63
1487210751.09,5545,12.56,74754.0,-5.87,-34.01,-34.19,0,*62
1487210752.31,5546,12.56,74756.8,-5.87,-34.19,-34.41,0,*65
1487210753.57,5547,12.56,74756.5,-5.87,-34.19,-34.53,0,*67
1487210754.77,5548,12.56,74756.5,-5.87,-34.13,-34.41,0,*61
1487210756.0,5549,12.56,74756.0,-5.87,-34.35,-34.71,0,*67
1487210757.2,5550,12.56,74758.3,-5.87,-34.41,-34.77,0,*6A
1487210758.46,5551,12.56,74758.8,-5.87,-34.31,-34.53,0,*6A
1487210759.7,5552,12.56,74756.8,-5.89,-34.19,-34.41,0,*6E
1487210760.96,5553,12.56,74758.5,-5.87,-34.19,-34.53,0,*62
1487210762.18,5554,12.56,74758.5,-5.87,-34.19,-34.41,0,*66
1487210763.43,5555,12.56,74756.3,-5.89,-34.35,-34.59,0,*6E
1487210764.66,5556,12.56,74756.8,-5.87,-34.35,-34.59,0,*63
1487210765.89,5557,12.56,74754.5,-5.87,-34.19,-34.59,0,*6C
1487210767.12,5558,12.56,74756.5,-5.87,-34.13,-34.35,0,*63
1487210768.4,5559,12.56,74756.3,-5.89,-34.31,-34.53,0,*6C
1487210769.62,5560,12.56,74752.5,-5.87,-34.13,-34.31,0,*6C
1487210770.87,5561,12.56,74756.0,-5.85,-33.89,-34.07,0,*6E
1487210772.12,5562,12.56,74758.3,-5.87,-33.77,-34.01,0,*68
1487210773.37,5563,12.56,74754.5,-5.89,-34.13,-34.35,0,*65
1487210774.59,5564,12.56,74756.0,-5.87,-34.19,-34.41,0,*65
1487210775.82,5565,12.56,74752.5,-5.87,-34.31,-34.71,0,*6D
1487210777.1,5566,12.56,74752.5,-5.89,-34.31,-34.53,0,*60
1487210778.31,5567,12.56,74756.0,-5.87,-33.83,-34.13,0,*65
1487210779.56,5568,12.56,74756.8,-5.87,-34.01,-34.31,0,*67
1487210780.78,5569,12.63,74758.3,-5.87,-34.19,-34.41,0,*68
1487210782.0,5570,12.56,74758.0,-5.87,-34.19,-34.41,0,*60
1487210783.28,5571,12.56,74758.5,-5.85,-34.31,-34.65,0,*6F
1487210784.53,5572,12.56,74754.0,-5.85,-34.35,-34.71,0,*6D
1487210785.76,5573,12.56,74756.3,-5.85,-34.07,-34.25,0,*6C
1487210787.03,5574,12.56,74754.5,-5.85,-34.31,-34.53,0,*6F
1487210788.29,5575,12.56,74754.5,-5.85,-34.47,-34.83,0,*62
1487210789.52,5576,12.56,74756.0,-5.89,-34.59,-34.89,0,*68
1487210790.77,5577,12.56,74754.5,-5.87,-34.31,-34.53,0,*6E
1487210792.03,5578,12.56,74758.8,-5.87,-34.31,-34.53,0,*61
1487210793.28,5579,12.56,74754.8,-5.85,-34.35,-34.71,0,*66
1487210794.54,5580,12.56,74756.3,-5.89,-34.53,-34.77,0,*6A
1487210795.77,5581,12.56,74754.0,-5.87,-34.35,-34.59,0,*69
1487210796.97,5582,12.56,74756.3,-5.87,-34.41,-34.77,0,*65
1487210798.23,5583,12.56,74758.8,-5.89,-34.53,-34.77,0,*69
1487210799.47,5584,12.56,74758.8,-5.87,-34.53,-34.77,0,*60
1487210800.73,5585,12.56,74756.8,-5.87,-34.53,-34.95,0,*6D
1487210801.96,5586,12.56,74756.5,-5.87,-34.35,-34.71,0,*64
1487210803.2,5587,12.56,74758.8,-5.89,-34.19,-34.41,0,*66
1487210804.44,5588,12.56,74756.3,-5.91,-34.47,-34.83,0,*65
1487210805.67,5589,12.56,74754.0,-5.91,-34.65,-35.01,0,*6F
1487210806.92,5590,12.56,74756.3,-5.91,-34.47,-34.65,0,*64
1487210808.14,5591,12.56,74756.5,-5.91,-34.19,-34.41,0,*68
1487210809.34,5592,12.56,74754.3,-5.91,-34.25,-34.47,0,*62
1487210810.6,5593,12.56,74754.0,-5.89,-34.31,-34.59,0,*60
1487210811.82,5594,12.56,74756.0,-5.91,-34.41,-34.83,0,*6E
1487210813.05,5595,12.56,74756.3,-5.91,-34.41,-34.83,0,*6F
1487210814.3,5596,12.56,74758.5,-5.91,-34.35,-34.65,0,*67
1487210815.53,5597,12.56,74754.5,-5.91,-34.19,-34.41,0,*6E
1487210816.8,5598,12.56,74754.8,-5.89,-34.19,-34.35,0,*6B
1487210818.01,5599,12.56,74758.0,-5.91,-34.47,-34.77,0,*6E
1487210819.22,5600,12.56,74756.0,-5.91,-34.47,-34.89,0,*6C
1487210820.45,5601,12.56,74756.0,-5.91,-34.59,-34.83,0,*68
1487210821.73,5602,12.56,74756.3,-5.93,-34.53,-34.83,0,*63
1487210822.96,5603,12.56,74756.8,-5.91,-34.01,-34.07,0,*6B
1487210824.19,5604,12.56,74752.8,-5.91,-33.89,-34.07,0,*6B
1487210825.42,5605,12.56,74756.3,-5.91,-34.41,-34.65,0,*6D
1487210826.67,5606,12.56,74756.0,-5.93,-34.41,-34.83,0,*64
1487210827.95,5607,12.56,74758.3,-5.93,-34.53,-34.83,0,*66
1487210829.18,5608,12.56,74756.5,-5.89,-34.41,-34.77,0,*6A
1487210830.43,5609,12.56,74754.0,-5.89,-34.13,-34.35,0,*6A
1487210831.65,5610,12.56,74754.3,-5.93,-34.13,-34.41,0,*6A
1487210832.89,5611,12.56,74756.8,-5.93,-34.25,-34.47,0,*68
1487210834.13,5612,12.56,74754.0,-5.93,-34.25,-34.31,0,*6A
1487210835.36,5613,12.56,74754.5,-5.91,-34.35,-34.59,0,*66
1487210836.6,5614,12.56,74756.3,-5.91,-34.35,-34.47,0,*6E
1487210837.83,5615,12.56,74754.8,-5.91,-34.19,-34.47,0,*61
1487210839.02,5616,12.56,74758.5,-5.91,-34.25,-34.41,0,*6B
1487210840.27,5617,12.56,74758.5,-5.91,-34.19,-34.35,0,*66
1487210841.5,5618,12.56,74754.8,-5.91,-34.07,-34.35,0,*66
1487210842.73,5619,12.56,74756.3,-5.93,-34.41,-34.71,0,*67
1487210843.96,5620,12.56,74754.3,-5.91,-34.53,-34.77,0,*6A
1487210845.2,5621,12.56,74754.5,-5.91,-34.35,-34.77,0,*6B
1487210846.48,5622,12.56,74758.3,-5.93,-34.31,-34.65,0,*6D
1487210847.72,5623,12.56,74756.3,-5.91,-34.41,-34.65,0,*69
1487210848.93,5624,12.56,74758.3,-5.91,-34.47,-34.77,0,*6B
1487210850.19,5625,12.56,74756.0,-5.93,-34.53,-34.89,0,*6C
1487210851.44,5626,12.56,74756.3,-5.91,-34.19,-34.35,0,*64
1487210852.65,5627,12.56,74756.5,-5.91,-33.89,-34.25,0,*6A
1487210853.86,5628,12.56,74752.8,-5.91,-34.25,-34.47,0,*60
1487210855.08,5629,12.56,74754.5,-5.91,-34.01,-34.25,0,*63
1487210856.37,5630,12.56,74756.3,-5.93,-34.31,-34.65,0,*6E
1487210857.63,5631,12.56,74754.5,-5.93,-34.47,-34.83,0,*66
1487210858.85,5632,12.56,74756.5,-5.91,-34.31,-34.41,0,*68
1487210860.08,5633,12.56,74758.8,-5.93,-34.13,-34.41,0,*6B
1487210861.27,5634,12.56,74754.5,-5.91,-34.25,-34.41,0,*6B
1487210862.53,5635,12.56,74754.0,-5.89,-34.35,-34.77,0,*67
1487210863.78,5636,12.56,74754.5,-5.89,-34.35,-34.77,0,*64
1487210865.06,5637,12.56,74758.8,-5.89,-34.31,-34.53,0,*67
1487210866.29,5638,12.56,74752.3,-5.89,-33.95,-34.13,0,*65
1487210867.51,5639,12.56,74758.3,-5.91,-34.41,-34.83,0,*6A
1487210868.77,5640,12.56,74758.0,-5.93,-34.53,-34.89,0,*6F
1487210870.0,5641,12.56,74758.0,-5.91,-34.35,-34.77,0,*6D
1487210871.23,5642,12.56,74756.0,-5.91,-34.59,-34.83,0,*6F
1487210872.47,5643,12.56,74754.3,-5.91,-34.59,-34.95,0,*69
1487210873.73,5644,12.56,74752.8,-5.93,-34.53,-34.89,0,*6B
1487210874.94,5645,12.56,74756.3,-5.91,-34.47,-34.77,0,*6C
1487210876.17,5646,12.56,74756.0,-5.93,-34.25,-34.47,0,*6A
1487210877.39,5647,12.56,74756.8,-5.91,-34.19,-34.41,0,*60
1487210878.63,5648,12.56,74752.3,-5.93,-34.47,-34.71,0,*65
1487210879.84,5649,12.56,74756.5,-5.91,-34.25,-34.47,0,*67
1487210881.09,5650,12.56,74758.8,-5.91,-34.01,-34.19,0,*62
1487210882.34,5651,12.56,74754.8,-5.91,-34.01,-34.35,0,*6D
1487210883.54,5652,12.56,74754.8,-5.91,-34.41,-34.77,0,*6C
1487210884.81,5653,12.56,74754.8,-5.93,-34.47,-34.65,0,*6A
1487210886.07,5654,12.56,74754.0,-5.93,-34.31,-34.47,0,*6C
1487210887.32,5655,12.56,74756.0,-5.93,-34.07,-34.31,0,*69
1487210888.54,5656,12.56,74754.5,-5.93,-33.95,-34.25,0,*63
1487210889.77,5657,12.56,74752.8,-5.91,-34.01,-34.25,0,*6A
1487210891.0,5658,12.56,74756.5,-5.93,-34.07,-34.41,0,*63
1487210892.25,5659,12.56,74756.3,-5.93,-34.13,-34.31,0,*60
1487210893.47,5660,12.56,74756.8,-5.91,-34.25,-34.35,0,*69
1487210894.73,5661,12.56,74758.3,-5.93,-34.41,-34.65,0,*6D
1487210895.96,5662,12.56,74758.0,-5.93,-34.41,-34.71,0,*6B
1487210897.15,5663,12.56,74752.8,-5.91,-34.25,-34.41,0,*69
1487210898.38,5664,12.56,74754.8,-5.91,-34.07,-34.35,0,*6D
1487210899.58,5665,12.56,74756.3,-5.91,-34.41,-34.77,0,*68
1487210900.82,5666,12.56,74752.8,-5.91,-34.35,-34.47,0,*6B
1487210902.01,5667,12.56,74754.3,-5.91,-33.83,-34.25,0,*64